Location: Unspecified
(53.3833°N, 0.0000°E)
Time: 03:13:01
(UTC+00:00)

Explorer 7 - All Passes

Search period start: 04 April 2026 00:00
Search period end: 14 April 2026 00:00
Orbit: 429 x 539 km, 50.2° (Epoch: 29 March)

Date Brightness Start Highest point End Pass type
(mag) Time Alt. Az. Time Alt. Az. Time Alt. Az.
4 Apr - 00:00:10 10° WSW 00:03:59 53° S 00:07:37 10° E night (unlit)
4 Apr - 01:38:27 10° W 01:42:01 38° SSW 01:45:26 10° SE night (unlit)
4 Apr - 03:17:37 10° WSW 03:19:37 14° SW 03:21:36 10° S night (unlit)
4 Apr - 20:20:20 10° SSE 20:21:23 11° SE 20:22:25 10° SE visible
4 Apr - 21:55:22 10° SW 21:58:56 32° SSE 22:02:23 10° E night (unlit)
4 Apr - 23:33:07 10° WSW 23:36:56 53° S 23:40:37 10° E night (unlit)
5 Apr - 01:11:23 10° W 01:14:59 39° SSW 01:18:27 10° SE night (unlit)
5 Apr - 02:50:27 10° WSW 02:52:37 15° SW 02:54:45 10° S night (unlit)
5 Apr - 19:53:42 10° SSE 19:54:20 10° SE 19:55:00 10° SE visible
5 Apr - 21:28:19 10° SW 21:31:52 31° SSE 21:35:19 10° E visible
5 Apr - 23:06:02 10° WSW 23:09:52 53° S 23:13:34 10° E night (unlit)
6 Apr - 00:44:17 10° W 00:47:56 41° SSW 00:51:26 10° SE night (unlit)
6 Apr - 02:23:16 10° WSW 02:25:35 16° SW 02:27:52 10° S night (unlit)
6 Apr - 21:01:15 10° SW 21:04:47 30° SSE 21:08:14 10° E visible
6 Apr - 22:38:55 10° WSW 22:42:46 53° S 22:46:30 10° E visible
7 Apr - 00:17:10 10° W 00:20:50 42° SSW 00:24:23 10° SE night (unlit)
7 Apr - 01:56:03 10° WSW 01:58:32 17° SW 02:00:56 10° S night (unlit)
7 Apr - 20:34:09 10° SW 20:37:40 29° SSE 20:41:06 10° E visible
7 Apr - 22:11:46 10° WSW 22:15:39 53° S 22:19:23 10° E visible
7 Apr - 23:50:01 10° W 23:53:44 43° SSW 23:57:18 10° ESE night (unlit)
8 Apr - 01:28:50 10° WSW 01:31:26 18° SW 01:33:58 10° S night (unlit)
8 Apr - 20:07:01 10° SW 20:10:31 28° SSE 20:13:57 10° E visible
8 Apr - 21:44:35 10° WSW 21:48:29 52° S 21:52:15 10° E visible
8 Apr - 23:22:49 10° W 23:26:34 44° SSW 23:30:11 10° ESE visible
9 Apr - 01:01:35 10° W 01:04:18 19° SSW 01:06:57 10° SSE night (unlit)
9 Apr - 19:39:53 10° SSW 19:43:21 28° SSE 19:46:45 10° E visible
9 Apr - 21:17:23 10° WSW 21:21:18 52° S 21:25:05 10° E visible
9 Apr - 22:55:36 10° W 22:59:23 46° SSW 23:03:02 10° ESE visible
10 Apr - 00:34:19 10° W 00:37:09 20° SSW 00:39:54 10° SSE night (unlit)
10 Apr - 19:12:43 10° SSW 19:16:09 27° SSE 19:19:31 10° E daylight
10 Apr - 20:50:10 10° WSW 20:54:04 51° S 20:57:53 10° E visible
10 Apr - 22:28:21 10° W 22:32:11 47° SSW 22:35:52 10° ESE visible
11 Apr - 00:07:01 10° W 00:09:57 21° SSW 00:12:49 10° SSE night (unlit)
11 Apr - 18:45:31 10° SSW 18:48:55 26° SSE 18:52:16 10° E daylight
11 Apr - 20:22:54 10° WSW 20:26:50 51° S 20:30:39 10° E visible
11 Apr - 22:01:05 10° W 22:04:56 48° SSW 22:08:39 10° ESE visible
11 Apr - 23:39:42 10° W 23:42:44 22° SSW 23:45:41 10° SSE visible
12 Apr - 18:18:18 10° SSW 18:21:39 25° SSE 18:24:58 10° E daylight
12 Apr - 19:55:37 10° WSW 19:59:34 50° S 20:03:24 10° E visible
12 Apr - 21:33:47 10° W 21:37:39 49° S 21:41:25 10° ESE visible
12 Apr - 23:12:21 10° W 23:15:29 23° SSW 23:18:31 10° SSE visible
13 Apr - 17:51:04 10° SSW 17:54:22 24° SSE 17:57:39 10° E daylight
13 Apr - 19:28:19 10° WSW 19:32:15 49° S 19:36:06 10° E visible
13 Apr - 21:06:27 10° W 21:10:21 50° S 21:14:09 10° ESE visible
13 Apr - 22:44:59 10° W 22:48:12 24° SSW 22:51:19 10° SSE visible
